DW0529 Weather Reports


Display with metric or nautical units.
time (UTC)temp
F
wind
direction
speed
MPH
gust
MPH
rain 1hr
in
rain 24hr
in
rain mn
in
humidity
%
barometer
mb
20260504001559 60 257 0.0 4.0 0.00 0.00 0.00 63 967.8
20260504000544 60 164 0.0 7.0 0.00 0.00 0.00 64 967.7
20260503235530 60 190 1.0 7.0 0.00 0.00 0.00 65 967.6
20260503233410 61 218 0.0 6.0 0.00 0.00 0.00 64 967.7
20260503232420 61 252 1.0 6.0 0.00 0.00 0.00 63 967.8
20260503231445 61 216 1.0 5.0 0.00 0.00 0.00 61 967.9
20260503230410 62 223 2.0 6.0 0.00 0.00 0.00 59 968.0
20260503225340 61 215 2.0 7.0 0.00 0.00 0.00 59 968.0
20260503224340 61 198 1.0 7.0 0.00 0.00 0.00 59 968.3
20260503222207 61 218 1.0 5.0 0.00 0.00 0.00 59 968.4
20260503221153 61 198 1.0 6.0 0.00 0.00 0.00 58 968.5
20260503220200 61 244 2.0 9.0 0.00 0.00 0.00 58 968.6
20260503215139 60 188 3.0 9.0 0.00 0.00 0.00 58 968.7
20260503212936 60 244 2.0 7.0 0.00 0.00 0.00 61 968.8
20260503211920 59 270 1.0 7.0 0.00 0.00 0.00 63 968.8
20260503210921 59 279 1.0 7.0 0.00 0.00 0.00 65 969.0
20260503205850 58 236 1.0 7.0 0.00 0.00 0.00 66 969.0
20260503203702 59 197 0.0 5.0 0.00 0.00 0.00 68 969.0
20260503201604 58 298 1.0 7.0 0.00 0.00 0.00 68 969.1
20260503200532 58 217 0.0 5.0 0.00 0.00 0.00 69 969.2
20260503195554 58 176 1.0 7.0 0.00 0.00 0.00 69 969.2
20260503194612 58 217 1.0 7.0 0.00 0.00 0.00 70 969.2
20260503193614 59 219 1.0 5.0 0.00 0.00 0.00 69 969.2
20260503192621 59 155 1.0 6.0 0.00 0.00 0.00 69 969.2
20260503191549 59 165 1.0 6.0 0.00 0.00 0.00 69 969.2
20260503190554 60 179 1.0 7.0 0.00 0.00 0.00 69 969.3
20260503185524 60 148 2.0 7.0 0.00 0.00 0.00 67 969.2
20260503184512 61 194 2.0 6.0 0.00 0.00 0.00 68 969.3
20260503183442 60 206 1.0 7.0 0.00 0.00 0.00 68 969.3
20260503182505 60 207 1.0 6.0 0.00 0.00 0.00 71 969.4
20260503181524 59 196 0.0 4.0 0.00 0.00 0.00 72 969.5
20260503180512 58 192 1.0 5.0 0.00 0.00 0.00 76 969.5
20260503174353 55 221 0.0 4.0 0.00 0.00 0.00 82 969.8
20260503173345 55 146 1.0 6.0 0.00 0.00 0.00 84 969.7
20260503172322 54 170 1.0 6.0 0.00 0.00 0.00 86 969.7
20260503171322 54 214 0.0 5.0 0.00 0.00 0.00 89 969.5
20260503170315 54 225 1.0 0.0 0.00 0.00 0.00 93 969.4
20260503160119 53 182 0.0 5.0 0.00 0.00 0.00 96 969.1
20260503150112 54 215 0.0 3.0 0.00 0.00 0.00 95 968.6
20260503110401 53 213 0.0 0.0 0.00 0.00 0.00 99 967.8
20260503100210 53 213 0.0 0.0 0.00 0.00 0.00 99 967.9
20260503090115 53 217 0.0 0.0 0.00 0.00 0.00 99 968.1
20260503072805 54 213 0.0 2.0 0.00 0.00 0.00 99 968.0
20260503071734 54 223 0.0 3.0 0.00 0.00 0.00 99 967.8
20260503070743 54 197 0.0 3.0 0.00 0.00 0.00 99 967.7
20260503054544 55 198 1.0 3.0 0.00 0.00 0.00 98 967.8
20260503053603 55 227 0.0 0.0 0.00 0.00 0.00 98 967.9
20260503052621 55 226 0.0 2.0 0.00 0.00 0.00 98 968.0
20260503051639 55 155 0.0 4.0 0.00 0.00 0.00 98 968.0
20260503050623 55 219 0.0 4.0 0.00 0.00 0.00 98 967.9
20260503045617 55 157 0.0 5.0 0.00 0.00 0.00 98 967.9
20260503041223 56 236 0.0 3.0 0.00 0.00 0.00 97 967.3
20260503040213 56 204 0.0 3.0 0.00 0.00 0.00 97 967.2
20260503035217 56 222 1.0 4.0 0.00 0.00 0.00 96 967.0
20260503034207 56 165 1.0 4.0 0.00 0.00 0.00 96 966.9
20260503033140 56 210 0.0 0.0 0.00 0.00 0.00 95 966.7
20260503032122 56 197 0.0 1.0 0.00 0.00 0.00 95 966.3
20260503025954 56 197 0.0 0.0 0.00 0.00 0.00 93 966.0
20260503025010 56 213 1.0 4.0 0.00 0.00 0.00 92 966.0
20260503024005 57 219 1.0 4.0 0.00 0.00 0.00 91 965.7
20260503023004 57 182 1.0 4.0 0.00 0.00 0.00 90 965.7
20260503022002 57 223 1.0 5.0 0.00 0.00 0.00 88 965.5
20260503020936 58 220 1.0 6.0 0.00 0.00 0.00 85 965.6
20260503015902 60 194 2.0 6.0 0.00 0.00 0.00 82 965.6
20260503014839 61 218 1.0 4.0 0.00 0.00 0.00 80 965.6
20260503013840 62 215 1.0 4.0 0.00 0.00 0.00 79 965.5
20260503012856 62 211 1.0 4.0 0.00 0.00 0.00 77 965.5
20260503005646 64 224 1.0 5.0 0.00 0.00 0.00 74 965.3
20260503004638 64 165 1.0 6.0 0.00 0.00 0.00 74 965.4